THY7LM LTFM-LTAN

Flight info

Callsign THY7LM
Flight time 0h 51m
Altitude 39000
Route RATVU1D/35L RATVU UT35 DOKUB UT76 KFK UB545 HISAR
Aircraft A20N/M-SDE2E3FGHIRWXY/LB1

Departure

Time 2026-05-04 17:10
Airport İstanbul Airport (LTFM)

Arrival

Time 2026-05-04 18:02
Airport Konya Airport (LTAN)
Time Latitude Longitude Altitude Speed Heading
2026-05-04 15:50 41.26622 28.73479 176 ft 0 kts 71°
2026-05-04 17:00 41.26617 28.73463 176 ft 2 kts 66°
2026-05-04 17:01 41.26602 28.73425 176 ft 2 kts 54°
2026-05-04 17:01 41.26579 28.73393 176 ft 2 kts 32°
2026-05-04 17:02 41.26549 28.73379 176 ft 2 kts
2026-05-04 17:02 41.26517 28.73383 176 ft 2 kts 343°
2026-05-04 17:03 41.26514 28.73384 176 ft 0 kts 342°
2026-05-04 17:04 41.26515 28.73384 176 ft 1 kts 342°
2026-05-04 17:04 41.26571 28.73358 176 ft 7 kts 338°
2026-05-04 17:05 41.26589 28.73205 176 ft 12 kts 271°
2026-05-04 17:05 41.26586 28.72979 176 ft 0 kts 271°
2026-05-04 17:06 41.26586 28.72962 176 ft 0 kts 271°
2026-05-04 17:07 41.26587 28.72936 176 ft 7 kts 270°
2026-05-04 17:08 41.26586 28.72842 177 ft 12 kts 269°
2026-05-04 17:08 41.26583 28.72595 178 ft 12 kts 269°
2026-05-04 17:08 41.26582 28.72568 178 ft 1 kts 268°
2026-05-04 17:09 41.26581 28.72539 178 ft 5 kts 268°
2026-05-04 17:09 41.26598 28.72515 178 ft 4 kts 348°
2026-05-04 17:09 41.26606 28.72515 178 ft 0 kts 358°
2026-05-04 17:10 41.27353 28.72502 173 ft 115 kts 359°
2026-05-04 17:10 41.30262 28.72446 1529 ft 145 kts 359°
2026-05-04 17:11 41.31243 28.72423 2186 ft 143 kts
2026-05-04 17:11 41.32299 28.72406 2563 ft 161 kts
2026-05-04 17:11 41.34761 28.72485 3509 ft 196 kts
2026-05-04 17:12 41.36162 28.72065 4099 ft 216 kts 336°
2026-05-04 17:12 41.38139 28.68772 5678 ft 257 kts 287°
2026-05-04 17:13 41.38100 28.61247 8503 ft 284 kts 276°
2026-05-04 17:14 41.34636 28.54346 10715 ft 354 kts 204°
2026-05-04 17:14 41.32189 28.53521 11075 ft 374 kts 180°
2026-05-04 17:14 41.27039 28.54568 12817 ft 374 kts 159°
2026-05-04 17:15 41.24675 28.55947 13703 ft 371 kts 143°
2026-05-04 17:15 41.20864 28.60503 15209 ft 372 kts 129°
2026-05-04 17:16 41.17127 28.65355 16732 ft 380 kts 131°
2026-05-04 17:16 41.11618 28.73124 18828 ft 386 kts 118°
2026-05-04 17:17 41.10156 28.76111 19506 ft 388 kts 117°
2026-05-04 17:17 41.05714 28.85158 21460 ft 396 kts 116°
2026-05-04 17:18 41.04029 28.88099 22063 ft 409 kts 128°
2026-05-04 17:18 40.98997 28.92022 23262 ft 440 kts 159°
2026-05-04 17:19 40.92762 28.92369 24280 ft 461 kts 185°
2026-05-04 17:19 40.86377 28.91224 25297 ft 463 kts 178°
2026-05-04 17:20 40.79925 28.91497 26233 ft 467 kts 173°
2026-05-04 17:20 40.73392 28.92003 27139 ft 473 kts 172°
2026-05-04 17:20 40.70097 28.92273 27584 ft 475 kts 172°
2026-05-04 17:21 40.63457 28.92812 28426 ft 481 kts 172°
2026-05-04 17:21 40.56800 28.93701 29239 ft 479 kts 161°
2026-05-04 17:22 40.53659 28.95089 29604 ft 474 kts 150°
2026-05-04 17:22 40.50802 28.97173 30046 ft 467 kts 140°
2026-05-04 17:23 40.42584 29.04231 30996 ft 474 kts 141°
2026-05-04 17:23 40.39812 29.06593 31342 ft 476 kts 141°
2026-05-04 17:23 40.34253 29.11317 32137 ft 477 kts 141°
2026-05-04 17:24 40.31469 29.13679 32546 ft 476 kts 141°
2026-05-04 17:24 40.23172 29.20707 33683 ft 476 kts 142°
2026-05-04 17:25 40.20383 29.23039 34039 ft 477 kts 144°
2026-05-04 17:25 40.14291 29.26664 34583 ft 486 kts 157°
2026-05-04 17:26 40.07953 29.29656 35279 ft 484 kts 158°
2026-05-04 17:26 39.98477 29.34146 36160 ft 482 kts 158°
2026-05-04 17:27 39.92178 29.37128 36695 ft 481 kts 158°
2026-05-04 17:27 39.85961 29.40284 37024 ft 478 kts 155°
2026-05-04 17:28 39.79869 29.43732 37058 ft 477 kts 155°
2026-05-04 17:29 39.61516 29.53804 37053 ft 477 kts 158°
2026-05-04 17:31 39.46002 29.61473 37046 ft 477 kts 158°
2026-05-04 17:32 39.30490 29.69178 37043 ft 478 kts 158°
2026-05-04 17:33 39.19132 29.74799 37045 ft 477 kts 159°
2026-05-04 17:34 39.06738 29.80908 37043 ft 477 kts 159°
2026-05-04 17:35 38.91952 29.90234 37041 ft 478 kts 132°
2026-05-04 17:35 38.89888 29.93563 37038 ft 476 kts 120°
2026-05-04 17:36 38.88400 29.97338 37039 ft 473 kts 108°
2026-05-04 17:36 38.87533 30.01388 37041 ft 470 kts 97°
2026-05-04 17:36 38.87004 30.05521 37039 ft 470 kts 97°
2026-05-04 17:37 38.85935 30.13729 37044 ft 471 kts 97°
2026-05-04 17:37 38.84833 30.22022 37048 ft 471 kts 97°
2026-05-04 17:38 38.83724 30.30302 37044 ft 471 kts 97°
2026-05-04 17:38 38.82608 30.38582 37046 ft 471 kts 97°
2026-05-04 17:39 38.80768 30.50966 37045 ft 472 kts 105°
2026-05-04 17:39 38.79533 30.54871 37035 ft 475 kts 116°
2026-05-04 17:39 38.77789 30.58478 37029 ft 478 kts 126°
2026-05-04 17:40 38.73432 30.64964 37026 ft 481 kts 130°
2026-05-04 17:40 38.69041 30.71410 37026 ft 480 kts 130°
2026-05-04 17:41 38.64649 30.77853 36960 ft 481 kts 130°
2026-05-04 17:41 38.62448 30.81074 36716 ft 481 kts 130°
2026-05-04 17:41 38.60251 30.84286 36464 ft 480 kts 130°
2026-05-04 17:42 38.58048 30.87501 35943 ft 482 kts 130°
2026-05-04 17:42 38.55831 30.90733 35207 ft 485 kts 129°
2026-05-04 17:42 38.53597 30.93986 34431 ft 488 kts 129°
2026-05-04 17:42 38.51360 30.97239 33703 ft 488 kts 128°
2026-05-04 17:43 38.49110 31.00508 32853 ft 489 kts 128°
2026-05-04 17:43 38.46868 31.03756 32071 ft 488 kts 128°
2026-05-04 17:43 38.44638 31.06958 31231 ft 490 kts 127°
2026-05-04 17:43 38.42381 31.10185 30649 ft 484 kts 127°
2026-05-04 17:44 38.40145 31.13377 29973 ft 481 kts 127°
2026-05-04 17:44 38.37931 31.16539 29344 ft 475 kts 126°
2026-05-04 17:44 38.35746 31.19662 28727 ft 469 kts 126°
2026-05-04 17:44 38.33590 31.22743 28118 ft 463 kts 126°
2026-05-04 17:45 38.31458 31.25790 27509 ft 459 kts 127°
2026-05-04 17:45 38.29339 31.28819 26917 ft 455 kts 127°
2026-05-04 17:45 38.27240 31.31810 26319 ft 451 kts 127°
2026-05-04 17:45 38.25158 31.34775 25727 ft 447 kts 127°
2026-05-04 17:46 38.23091 31.37717 25126 ft 445 kts 127°
2026-05-04 17:46 38.21037 31.40637 24526 ft 442 kts 127°
2026-05-04 17:46 38.18988 31.43547 23934 ft 440 kts 127°
2026-05-04 17:46 38.16955 31.46433 23270 ft 438 kts 127°
2026-05-04 17:47 38.14937 31.49295 22741 ft 432 kts 127°
2026-05-04 17:47 38.13045 31.52193 22200 ft 421 kts 118°
2026-05-04 17:47 38.11710 31.55434 21646 ft 408 kts 105°
2026-05-04 17:47 38.11006 31.58846 21126 ft 396 kts 93°
2026-05-04 17:48 38.10632 31.62282 20604 ft 391 kts 92°
2026-05-04 17:48 38.10258 31.65680 20089 ft 387 kts 93°
2026-05-04 17:48 38.09883 31.69045 19578 ft 383 kts 93°
2026-05-04 17:48 38.09507 31.72383 19073 ft 380 kts 93°
2026-05-04 17:49 38.09134 31.75688 18553 ft 377 kts 94°
2026-05-04 17:49 38.08761 31.78974 18025 ft 375 kts 94°
2026-05-04 17:49 38.08391 31.82232 17517 ft 371 kts 95°
2026-05-04 17:49 38.08024 31.85457 17011 ft 367 kts 95°
2026-05-04 17:50 38.07658 31.88651 16524 ft 364 kts 95°
2026-05-04 17:50 38.07295 31.91814 16034 ft 361 kts 95°
2026-05-04 17:50 38.06934 31.94949 15540 ft 357 kts 95°
2026-05-04 17:50 38.06576 31.98057 15057 ft 355 kts 95°
2026-05-04 17:51 38.06222 32.01145 14580 ft 352 kts 96°
2026-05-04 17:51 38.05869 32.04211 14108 ft 350 kts 96°
2026-05-04 17:51 38.05517 32.07259 13612 ft 348 kts 96°
2026-05-04 17:51 38.05165 32.10281 13104 ft 345 kts 95°
2026-05-04 17:52 38.04607 32.13226 12637 ft 344 kts 112°
2026-05-04 17:52 38.03284 32.15735 12168 ft 345 kts 135°
2026-05-04 17:52 38.01345 32.17626 11684 ft 358 kts 146°
2026-05-04 17:52 37.99256 32.19396 11173 ft 363 kts 147°
2026-05-04 17:53 37.97177 32.21130 10692 ft 362 kts 147°
2026-05-04 17:53 37.95091 32.22875 10324 ft 355 kts 146°
2026-05-04 17:53 37.93081 32.24565 10174 ft 340 kts 146°
2026-05-04 17:53 37.91153 32.26195 10022 ft 327 kts 146°
2026-05-04 17:54 37.89299 32.27776 9862 ft 314 kts 143°
2026-05-04 17:54 37.87672 32.29571 9484 ft 308 kts 134°
2026-05-04 17:54 37.86187 32.31508 9095 ft 305 kts 132°
2026-05-04 17:54 37.84735 32.33450 8732 ft 303 kts 133°
2026-05-04 17:55 37.83280 32.35356 8363 ft 299 kts 134°
2026-05-04 17:55 37.81828 32.37219 7994 ft 296 kts 134°
2026-05-04 17:55 37.80386 32.39040 7639 ft 293 kts 134°
2026-05-04 17:55 37.78955 32.40835 7407 ft 286 kts 134°
2026-05-04 17:56 37.77529 32.42655 7313 ft 290 kts 128°
2026-05-04 17:56 37.76621 32.44833 7181 ft 274 kts 100°
2026-05-04 17:56 37.76595 32.47129 7060 ft 254 kts 71°
2026-05-04 17:56 37.77385 32.48986 6915 ft 231 kts 39°
2026-05-04 17:57 37.78694 32.49939 6791 ft 209 kts
2026-05-04 17:57 37.80086 32.50115 6659 ft 196 kts 358°
2026-05-04 17:57 37.81412 32.50166 6542 ft 186 kts 359°
2026-05-04 17:57 37.82677 32.50336 6405 ft 180 kts
2026-05-04 17:58 37.83906 32.50637 6353 ft 173 kts
2026-05-04 17:58 37.85005 32.51004 6251 ft 156 kts
2026-05-04 17:58 37.86010 32.51379 6101 ft 145 kts
2026-05-04 17:58 37.86919 32.51735 6014 ft 129 kts
2026-05-04 17:59 37.87762 32.52084 5776 ft 127 kts 11°
2026-05-04 17:59 37.88603 32.52444 5474 ft 128 kts 11°
2026-05-04 17:59 37.90283 32.53147 4837 ft 129 kts 11°
2026-05-04 18:00 37.91145 32.53457 4576 ft 127 kts 10°
2026-05-04 18:00 37.91968 32.53756 4364 ft 122 kts
2026-05-04 18:00 37.92809 32.54043 4190 ft 124 kts
2026-05-04 18:00 37.93663 32.54331 4037 ft 130 kts
2026-05-04 18:01 37.94525 32.54641 3834 ft 128 kts 13°
2026-05-04 18:01 37.95351 32.54995 3670 ft 124 kts 12°
2026-05-04 18:01 37.96189 32.55315 3515 ft 129 kts 11°
2026-05-04 18:02 37.97544 32.55794 3374 ft 33 kts 22°
2026-05-04 18:02 37.97626 32.55835 3376 ft 11 kts 21°
2026-05-04 18:02 37.97710 32.55874 3377 ft 15 kts 20°
2026-05-04 18:02 37.97817 32.55892 3378 ft 16 kts 332°
2026-05-04 18:03 37.97837 32.55821 3378 ft 1 kts 292°
2026-05-04 18:03 37.97840 32.55819 3378 ft 0 kts 319°
2026-05-04 18:03 37.97867 32.55823 3377 ft 5 kts 43°
2026-05-04 18:03 37.97858 32.55845 3377 ft 6 kts 165°
2026-05-04 18:04 37.97837 32.55905 3378 ft 9 kts 61°
2026-05-04 18:04 37.97895 32.55943 3379 ft 10 kts 18°
2026-05-04 18:04 37.98043 32.56002 3380 ft 13 kts 16°
2026-05-04 18:05 37.98132 32.56032 3380 ft 13 kts 15°
2026-05-04 18:05 37.98223 32.56057 3381 ft 13 kts 351°
2026-05-04 18:05 37.98263 32.55964 3380 ft 13 kts 288°
2026-05-04 18:05 37.98292 32.55846 3380 ft 13 kts 287°
2026-05-04 18:06 37.98255 32.55715 3380 ft 9 kts 196°
2026-05-04 18:06 37.98237 32.55709 3380 ft 2 kts 195°
2026-05-04 18:06 37.98235 32.55708 3380 ft 0 kts 195°